Volver al catálogo

SL-8 R/B

ActivoLEO
NORAD 16457·ROCKET BODY·🇷🇺 Russia

Lanzado Jan 9, 1986 desde Plesetsk Cosmodrome

Loading…

Próximos Pases (próximas 24 horas)

TLE

ActualizadoSource: Space-Track

Época: Sep 14, 2026, 10:44 UTC

1 16457U 86002J   26257.44733527  .00000034  00000-0  44918-3 0  9992
2 16457  73.9914 143.8668 0134206  64.5988 107.4476 12.20753705716601

Sigue SL-8 R/B en tiempo real con AllMySat

Download on the App Store